TAP431 EDDF-EDDN

Flight info

Callsign TAP431
Flight time N/A
Altitude 21000
Route CINDY8S/18 CINDY Z74 HAREM T104 ELMOX DCT LETKU LETKU1V
Aircraft A320/M-SDE3FGHIRWY/LB1

Departure

Time 2026-04-17 13:42
Airport Frankfurt Main Airport (EDDF)

Arrival

Time N/A
Airport Nuremberg Airport (EDDN)
Time Latitude Longitude Altitude Speed Heading
2026-04-17 13:13 50.03940 8.55120 352 ft 0 kts 160°
2026-04-17 13:32 50.03938 8.55121 352 ft 0 kts 160°
2026-04-17 13:33 50.03940 8.55120 352 ft 0 kts 160°
2026-04-17 13:33 50.03933 8.55125 352 ft 8 kts 156°
2026-04-17 13:33 50.03880 8.55145 351 ft 3 kts 129°
2026-04-17 13:34 50.03876 8.55157 351 ft 1 kts 109°
2026-04-17 13:34 50.03883 8.55131 351 ft 5 kts 110°
2026-04-17 13:34 50.03889 8.55281 352 ft 11 kts 72°
2026-04-17 13:34 50.03905 8.55354 352 ft 3 kts 70°
2026-04-17 13:35 50.03981 8.55294 354 ft 31 kts 288°
2026-04-17 13:36 50.04049 8.55416 356 ft 0 kts 334°
2026-04-17 13:36 50.04078 8.55269 357 ft 14 kts 256°
2026-04-17 13:36 50.04054 8.55160 356 ft 7 kts 252°
2026-04-17 13:37 50.04039 8.55088 354 ft 7 kts 252°
2026-04-17 13:37 50.04022 8.55008 352 ft 8 kts 253°
2026-04-17 13:37 50.04005 8.54923 351 ft 7 kts 253°
2026-04-17 13:37 50.03985 8.54846 350 ft 8 kts 248°
2026-04-17 13:38 50.03958 8.54742 348 ft 12 kts 248°
2026-04-17 13:38 50.03920 8.54601 346 ft 14 kts 249°
2026-04-17 13:38 50.03882 8.54447 346 ft 14 kts 250°
2026-04-17 13:38 50.03832 8.54293 345 ft 15 kts 238°
2026-04-17 13:39 50.03783 8.54144 347 ft 14 kts 250°
2026-04-17 13:39 50.03748 8.53998 349 ft 13 kts 250°
2026-04-17 13:39 50.03715 8.53864 351 ft 12 kts 249°
2026-04-17 13:39 50.03684 8.53731 351 ft 13 kts 251°
2026-04-17 13:40 50.03650 8.53586 350 ft 14 kts 250°
2026-04-17 13:40 50.03613 8.53431 349 ft 15 kts 249°
2026-04-17 13:40 50.03571 8.53261 345 ft 17 kts 249°
2026-04-17 13:40 50.03528 8.53092 344 ft 16 kts 250°
2026-04-17 13:41 50.03485 8.52917 344 ft 17 kts 249°
2026-04-17 13:41 50.03439 8.52735 343 ft 17 kts 245°
2026-04-17 13:41 50.03362 8.52593 341 ft 17 kts 198°
2026-04-17 13:41 50.03243 8.52583 339 ft 17 kts 169°
2026-04-17 13:42 50.03019 8.52593 334 ft 67 kts 180°
2026-04-17 13:42 50.02262 8.52598 330 ft 144 kts 180°
2026-04-17 13:42 50.01065 8.52599 461 ft 191 kts 181°
2026-04-17 13:42 49.99724 8.52591 1238 ft 195 kts 180°
2026-04-17 13:43 49.98408 8.52595 2182 ft 188 kts 180°
2026-04-17 13:43 49.97109 8.52579 3064 ft 186 kts 181°
2026-04-17 13:43 49.95805 8.52520 3872 ft 183 kts 182°
2026-04-17 13:43 49.94530 8.52426 4494 ft 184 kts 184°
2026-04-17 13:44 49.93235 8.52315 5094 ft 186 kts 184°
2026-04-17 13:44 49.91975 8.52269 5626 ft 191 kts 181°
2026-04-17 13:44 49.91010 8.52311 6031 ft 193 kts 178°
2026-04-17 13:45 49.89650 8.52487 6611 ft 195 kts 174°
2026-04-17 13:45 49.88269 8.52804 7193 ft 197 kts 169°
2026-04-17 13:45 49.86894 8.53262 7784 ft 198 kts 167°
2026-04-17 13:45 49.85560 8.53870 8301 ft 203 kts 157°
2026-04-17 13:46 49.84451 8.55362 8595 ft 218 kts 121°
2026-04-17 13:46 49.84013 8.57658 8969 ft 227 kts 98°
2026-04-17 13:46 49.83861 8.60095 9469 ft 231 kts 95°
2026-04-17 13:46 49.83748 8.62581 9987 ft 233 kts 94°
2026-04-17 13:47 49.83644 8.65078 10492 ft 234 kts 94°
2026-04-17 13:47 49.83541 8.67604 10979 ft 237 kts 94°
2026-04-17 13:47 49.83433 8.70158 11450 ft 239 kts 94°
2026-04-17 13:47 49.83319 8.72746 11914 ft 242 kts 94°
2026-04-17 13:48 49.83197 8.75360 12362 ft 245 kts 94°
2026-04-17 13:48 49.83069 8.78008 12800 ft 247 kts 94°
2026-04-17 13:48 49.82935 8.80706 13234 ft 250 kts 94°
2026-04-17 13:48 49.82800 8.83391 13670 ft 252 kts 94°
2026-04-17 13:49 49.82660 8.86106 14095 ft 254 kts 94°
2026-04-17 13:49 49.82518 8.88833 14513 ft 256 kts 94°
2026-04-17 13:49 49.82388 8.91618 14925 ft 259 kts 94°
2026-04-17 13:49 49.81977 8.94323 15319 ft 261 kts 109°
2026-04-17 13:50 49.81281 8.96933 15728 ft 263 kts 113°
2026-04-17 13:50 49.80534 8.99554 16120 ft 265 kts 114°
2026-04-17 13:50 49.79775 9.02196 16510 ft 267 kts 114°
2026-04-17 13:50 49.79009 9.04862 16905 ft 269 kts 114°
2026-04-17 13:51 49.78246 9.07519 17279 ft 271 kts 114°
2026-04-17 13:51 49.77478 9.10195 17652 ft 272 kts 113°
2026-04-17 13:51 49.76697 9.12907 18013 ft 274 kts 113°
2026-04-17 13:51 49.75912 9.15605 18372 ft 276 kts 113°
2026-04-17 13:52 49.75123 9.18302 18718 ft 278 kts 114°
2026-04-17 13:52 49.74317 9.21044 19061 ft 280 kts 113°
2026-04-17 13:52 49.73505 9.23792 19404 ft 281 kts 113°